Location: Observatorio Las Palmas
(29.0667°N, 110.9333°W)
Time: 03:12:26
(UTC-07:00)

HST - Visible Passes

Search period start: 22 November 2014 00:00
Search period end: 02 December 2014 00:00
Orbit: 545 x 550 km, 28.5° (Epoch: 21 November)

Date Brightness Start Highest point End Pass type
(mag) Time Alt. Az. Time Alt. Az. Time Alt. Az.
22 Nov 3.7 04:13:12 15° ESE 04:13:12 15° ESE 04:14:12 10° ESE visible
22 Nov 1.1 05:48:45 17° WSW 05:51:54 63° S 05:56:02 10° E visible
23 Nov 3.9 04:06:26 13° E 04:06:26 13° E 04:06:56 10° E visible
23 Nov 0.9 05:41:59 24° WSW 05:44:24 72° S 05:48:34 10° E visible
24 Nov 0.8 05:35:08 33° WSW 05:36:55 79° S 05:41:06 10° E visible
25 Nov 0.7 05:28:12 45° W 05:29:26 83° S 05:33:37 10° E visible
26 Nov 0.7 05:21:12 60° W 05:21:56 84° S 05:26:07 10° E visible
27 Nov 0.6 05:14:11 77° WSW 05:14:25 83° S 05:18:37 10° E visible
28 Nov 0.8 05:07:08 75° SSE 05:07:08 75° SSE 05:11:05 10° E visible
29 Nov 1.3 05:00:04 57° SE 05:00:04 57° SE 05:03:32 10° ESE visible
30 Nov 1.9 04:53:00 42° SE 04:53:00 42° SE 04:55:57 10° ESE visible
30 Nov 2.4 06:29:32 10° WSW 06:32:57 24° SSW 06:36:21 10° SSE visible
01 Dec 2.4 04:45:56 31° SE 04:45:56 31° SE 04:48:19 10° ESE visible
01 Dec 2.8 06:22:20 10° WSW 06:25:18 19° SSW 06:28:16 10° SSE visible
